• Join FlightAware (Why Join?)
  • Login
  • US Flag GB Flag 
11:39 EDT


 

Airport Tracker/Info


-or-


 

Live Flight TrackerFlight Track Log ✈ EJA829P ✈ 04-Sep-2013 ✈ KJVY - KRAP

Flight Track Log - Related Links

Times and Time Zones

All times are in EDT time to prevent confusion due to time zone crossing. See the EJA829P flight status page for this flight to view local times or setup timezone preferences in your user account.

Time Position Orientation Groundspeed Altitude Reporting Facility
EDT Latitude Longitude Course Direction KTS MPH feet Rate Location/Type
08:41 38.4544 -85.7606 290° West 235 270 5,100  Level Indianapolis Center
08:42 38.5178 -85.8089 329° Northwest 257 296 8,400 3,000 Climbing Indianapolis Center
08:43 38.5831 -85.8625 327° Northwest 273 314 11,300 2,820 Climbing Indianapolis Center
08:44 38.6692 -85.9297 329° Northwest 297 342 14,200 2,580 Climbing Indianapolis Center
08:45 38.7417 -85.9883 328° Northwest 306 352 16,700 2,220 Climbing Indianapolis Center
08:46 38.8197 -86.1854 290° West  Level FlightAware Approximate
08:46 38.7911 -86.0725 307° West 305 351 18,800  Level Indianapolis Center
08:47 38.8247 -86.1781 292° West 315 362 20,900 1,920 Climbing Indianapolis Center
08:48 38.8569 -86.2833 291° West 317 365 22,800 1,620 Climbing Indianapolis Center
08:49 38.8914 -86.3975 291° West 323 372 24,300 1,380 Climbing Indianapolis Center
08:50 38.9264 -86.5108 292° West 334 384 25,700 1,320 Climbing Indianapolis Center
08:51 38.9594 -86.6200 291° West 341 392 27,100 1,440 Climbing Indianapolis Center
08:52 39.0039 -86.7611 292° West 351 404 28,700 1,380 Climbing Indianapolis Center
08:53 39.0381 -86.8797 290° West 354 407 30,000 1,200 Climbing Indianapolis Center
08:54 39.0739 -86.9981 291° West 355 409 31,200 1,140 Climbing Indianapolis Center
08:55 39.1100 -87.1183 291° West 359 413 32,400 840 Climbing Indianapolis Center
08:56 39.1483 -87.2458 291° West 361 415 33,000 240 Climbing Indianapolis Center
08:57 39.1864 -87.3750 291° West 375 432 33,000  Level Indianapolis Center
08:58 39.2283 -87.5042 293° West 387 445 33,000  Level Indianapolis Center
08:59 39.2744 -87.6322 295° West 392 451 33,000  Level Indianapolis Center
09:00 39.3253 -87.7783 294° West 391 450 33,000  Level Indianapolis Center
09:01 39.3703 -87.9067 294° West 391 450 33,000  Level Indianapolis Center
09:02 39.4167 -88.0414 294° West 392 451 33,000  Level Indianapolis Center
09:03 39.4600 -88.1669 294° West 393 452 33,000  Level Kansas City Center
09:04 39.5050 -88.2958 294° West 393 452 33,000  Level Kansas City Center
09:05 39.5481 -88.4244 294° West 390 449 33,000 60 Level Kansas City Center
09:06 39.5931 -88.5489 295° West 385 443 33,200 300 Climbing Kansas City Center
09:08 39.6333 -88.6689 294° West 383 441 33,700 360 Climbing Kansas City Center
09:09 39.6850 -88.8186 294° West 379 436 34,000 120 Climbing Kansas City Center
09:10 39.7286 -88.9481 294° West 387 445 34,000  Level Kansas City Center
09:11 39.7706 -89.0750 293° West 385 443 34,000  Level Kansas City Center
09:12 39.8136 -89.2011 294° West 383 441 34,000  Level Kansas City Center
09:13 39.8544 -89.3256 293° West 377 434 34,000  Level Kansas City Center
09:14 39.8956 -89.4508 293° West 376 433 34,000  Level Kansas City Center
09:15 39.9367 -89.5750 293° West 375 432 34,000  Level Kansas City Center
09:16 39.9781 -89.7008 293° West 375 432 34,000  Level Kansas City Center
09:17 40.0197 -89.8269 293° West 376 433 34,000  Level Kansas City Center
09:18 40.0603 -89.9528 293° West 376 433 34,000  Level Kansas City Center
09:19 40.1008 -90.0794 293° West 376 433 34,000  Level Kansas City Center
09:20 40.1419 -90.2058 293° West 376 433 34,000  Level Kansas City Center
09:21 40.1828 -90.3333 293° West 378 435 34,000  Level Kansas City Center
09:22 40.2231 -90.4578 293° West 374 430 34,000  Level Kansas City Center
09:23 40.2636 -90.5856 293° West 375 432 34,000  Level Kansas City Center
09:24 40.3022 -90.7089 292° West 370 426 34,000  Level Kansas City Center
09:25 40.3425 -90.8353 293° West 372 428 34,000  Level Kansas City Center
09:26 40.3897 -90.9856 292° West 371 427 34,000  Level Kansas City Center
09:27 40.4281 -91.1111 292° West 371 427 34,000  Level Kansas City Center
09:28 40.4675 -91.2372 292° West 372 428 34,000  Level Kansas City Center
09:29 40.5042 -91.3589 292° West 373 429 34,000  Level Kansas City Center
09:30 40.5431 -91.4842 292° West 374 430 34,000  Level Kansas City Center
09:31 40.5897 -91.6353 292° West 374 430 34,000  Level Kansas City Center
09:32 40.6283 -91.7614 292° West 375 432 34,000  Level Kansas City Center
09:33 40.6617 -91.8661 293° West 381 438 34,000  Level Chicago Center
09:34 40.6997 -91.9936 292° West 379 436 34,000  Level Chicago Center
09:35 40.7386 -92.1214 292° West 380 437 34,000  Level Chicago Center
09:36 40.7761 -92.2483 291° West 378 435 34,000  Level Chicago Center
09:37 40.8217 -92.4022 291° West 380 437 34,000  Level Chicago Center
09:38 40.8600 -92.5311 292° West 381 438 34,000  Level Chicago Center
09:39 40.8981 -92.6597 291° West 380 437 34,000  Level Chicago Center
09:40 40.9356 -92.7892 291° West 382 440 34,000  Level Chicago Center
09:41 40.9733 -92.9183 291° West 382 440 34,000  Level Chicago Center
09:42 41.0183 -93.0722 291° West 379 436 34,000  Level Chicago Center
09:43 41.0406 -93.1519 290° West 381 438 34,000  Level Minneapolis Center
09:44 41.0869 -93.3036 292° West 377 434 34,000  Level Minneapolis Center
09:45 41.1231 -93.4350 290° West 381 438 34,000  Level Minneapolis Center
09:46 41.1608 -93.5636 291° West 379 436 34,000  Level Minneapolis Center
09:47 41.1978 -93.6936 291° West 379 436 34,000  Level Minneapolis Center
09:48 41.2353 -93.8239 291° West 380 437 34,000  Level Minneapolis Center
09:49 41.2781 -93.9808 290° West 380 437 34,000  Level Minneapolis Center
09:50 41.3147 -94.1114 291° West 380 437 34,000  Level Minneapolis Center
09:51 41.3508 -94.2397 291° West 379 436 34,000  Level Minneapolis Center
09:52 41.3864 -94.3717 290° West 379 436 34,000  Level Minneapolis Center
09:53 41.4189 -94.5036 288° West 377 434 34,000  Level Minneapolis Center
09:54 41.4611 -94.6628 290° West 379 436 34,000  Level Minneapolis Center
09:55 41.4983 -94.7956 291° West 382 440 34,000  Level Minneapolis Center
09:56 41.5456 -94.9547 292° West 384 442 34,000  Level Minneapolis Center
09:57 41.5808 -95.0872 290° West 381 438 34,000  Level Minneapolis Center
09:59 41.6465 -95.3477 290° West  Level FlightAware Approximate
10:00 41.6575 -95.3767 290° West 378 435 34,000  Level Minneapolis Center
10:01 41.6917 -95.5092 289° West 379 436 34,000  Level Minneapolis Center
10:02 41.7183 -95.6131 289° West 376 433 34,000  Level Minneapolis Center
10:03 41.7592 -95.7708 289° West 375 432 34,000  Level Minneapolis Center
10:04 41.7939 -95.9014 290° West 376 433 34,000  Level Minneapolis Center
10:05 41.8272 -96.0328 289° West 377 434 34,000  Level Minneapolis Center
10:06 41.8678 -96.1914 289° West 378 435 34,000  Level Minneapolis Center
10:07 41.9061 -96.3467 288° West 369 425 34,000  Level Minneapolis Center
10:08 41.9386 -96.4722 289° West 361 415 34,000  Level Minneapolis Center
10:09 41.9697 -96.5961 289° West 355 409 34,000  Level Minneapolis Center
10:10 42.0014 -96.7189 289° West 350 403 34,000  Level Minneapolis Center
10:11 42.0311 -96.8400 288° West 345 397 34,000  Level Minneapolis Center
10:12 42.0669 -96.9875 288° West 346 398 34,000  Level Minneapolis Center
10:13 42.0969 -97.1086 288° West 345 397 34,000  Level Minneapolis Center
10:14 42.1269 -97.2317 288° West 345 397 34,000  Level Minneapolis Center
10:15 42.1572 -97.3547 288° West 346 398 34,000  Level Minneapolis Center
10:16 42.1886 -97.4839 288° West 356 410 34,000  Level Minneapolis Center
10:17 42.2200 -97.6142 288° West 365 420 34,000  Level Minneapolis Center
10:19 42.2589 -97.7742 288° West 371 427 34,000  Level Minneapolis Center
10:20 42.2953 -97.9333 287° West 375 432 34,000  Level Minneapolis Center
10:21 42.3272 -98.0672 288° West 377 434 34,000  Level Minneapolis Center
10:22 42.3594 -98.2042 288° West 381 438 34,000  Level Minneapolis Center
10:23 42.3925 -98.3450 288° West 390 449 34,000  Level Minneapolis Center
10:24 42.4242 -98.4853 287° West 391 450 34,000  Level Minneapolis Center
10:25 42.4644 -98.6547 288° West 394 453 34,000  Level Minneapolis Center
10:26 42.5106 -98.7886 295° West 394 453 34,000  Level Minneapolis Center
10:27 42.5586 -98.9214 296° West 393 452 34,000  Level Minneapolis Center
10:28 42.6078 -99.0556 297° West 396 456 34,000  Level Minneapolis Center
10:29 42.6572 -99.1861 297° West 393 452 34,000  Level Minneapolis Center
10:30 42.6969 -99.2947 296° West 397 457 34,000  Level Minneapolis Center
10:31 42.7519 -99.4442 297° West 394 453 34,000  Level Denver Center
10:32 42.8006 -99.5792 296° West 396 456 34,000  Level Denver Center
10:33 42.8494 -99.7153 296° West 397 457 34,000  Level Denver Center
10:34 42.8978 -99.8508 296° West 397 457 34,000  Level Denver Center
10:35 42.9469 -99.9856 297° West 396 456 34,000  Level Denver Center
10:36 42.9953 -100.1203 296° West 396 456 34,000  Level Denver Center
10:37 43.0433 -100.2553 296° West 396 456 34,000  Level Denver Center
10:38 43.1019 -100.4167 296° West 393 452 34,000  Level Denver Center
10:39 43.1489 -100.5544 295° West 397 457 34,000  Level Denver Center
10:40 43.1975 -100.6925 296° West 399 459 34,000  Level Denver Center
10:41 43.2456 -100.8286 296° West 397 457 34,000  Level Denver Center
10:42 43.2928 -100.9672 295° West 399 459 34,000  Level Denver Center
10:43 43.3419 -101.1072 296° West 404 465 34,000  Level Denver Center
10:44 43.3989 -101.2733 295° West 401 461 34,000  Level Denver Center
10:45 43.4469 -101.4128 295° West 402 463 34,000 -720 Level Denver Center
10:46 43.4642 -101.5642 279° West 407 468 32,600 -1,980 Descending Denver Center
10:47 43.4753 -101.7150 276° West 396 456 30,000 -2,580 Descending Denver Center
10:48 43.4867 -101.8653 276° West 393 452 27,300 -1,500 Descending Denver Center
10:49 43.4978 -102.0161 276° West 398 458 27,000 -780 Descending Denver Center
10:50 43.5583 -102.1575 301° West 397 457 25,800 -2,700 Descending Denver Center
10:51 43.6222 -102.2883 304° West 373 429 21,500 -4,020 Descending Denver Center
10:52 43.6594 -102.3589 306° West 348 400 19,000 -3,480 Descending Denver Center
10:52 43.6847 -102.4131 303° West 342 394 17,500 -1,740 Descending Denver Center
10:53 43.7331 -102.5133 304° West 344 396 16,600 -1,500 Descending Denver Center
10:54 43.7831 -102.6114 305° West 335 386 14,700 -2,280 Descending Denver Center
10:55 43.8364 -102.7219 304° West 320 368 12,000 -2,640 Descending Denver Center
10:56 43.8772 -102.8103 303° West 306 352 9,300 -2,520 Descending Denver Center
10:58 43.9103 -102.8981 298° West 290 334 6,900 -2,100 Descending Denver Center
10:59 43.9475 -102.9839 301° West 226 260 5,000 -1,320 Descending Denver Center
11:00 43.9911 -103.0189 330° Northwest 164 189 4,200 -840 Descending Denver Center
11:01 44.0222 -103.0422 332° Northwest 103 119 3,400 -840 Descending Denver Center
11:03 44.0333 -103.0500 270° West  Level FlightAware Approximate